Weather History for Norwood, MA

Change the Weather History Date:

Tuesday, February 5, 2013

  Actual Average Record
Temperature  
Mean Temperature 24 °F -  
Max Temperature 28 °F 36 °F 52 °F (2006)
Min Temperature 21 °F 17 °F 1 °F (2009)
Degree Days  
Heating Degree Days 40    
Moisture  
Dew Point 17 °F    
Average Humidity 72    
Maximum Humidity 100    
Minimum Humidity 51    
Precipitation  
Precipitation 0.01 in - - ()
Sea Level Pressure  
Sea Level Pressure 29.97 in    
Wind  
Wind Speed 2 mph (SE)    
Max Wind Speed 6 mph    
Max Gust Speed -    
Visibility 6 miles    
Events Snow    
Averages and records for this station are not official NWS values.
T = Trace of Precipitation, MM = Missing Value Source: NWS Daily Summary

Daily Weather History Graph

Daily Weather History Graph

Search for Another Location

Airport:

Trip Planner

Search our weather history database for the weather conditions in past years. The results will help you decide how hot, cold, wet, or windy it might be!

Date:

Astronomy

Feb. 05, 2013 Rise Set
Actual Time 6:53 AM EST 5:04 PM EST
Civil Twilight 6:23 AM EST 5:34 PM EST
Nautical Twilight 5:50 AM EST 6:07 PM EST
Astronomical Twilight 5:17 AM EST 6:40 PM EST
Moon 2:33 AM EST (2/5) 12:17 PM EST (2/5)
Length of Visible Light 11h 10m
Length of Day
10h 11m
Waning Crescent, 27% of the Moon is Illuminated
Feb 5
Waning Crescent
Feb 10
New
Feb 17
First Quarter
Feb 25
Full
Mar 4
Last Quarter

Hourly Weather History & Observations

Time (EST) Temp. Windchill Dew Point Humidity Pressure Visibility Wind Dir Wind Speed Gust Speed Precip Events Conditions
12:53 AM 21.9 °F 14.5 °F 7.0 °F 53% 29.96 in 10.0 mi West 5.8 mph - N/A   Overcast
1:53 AM 21.9 °F 15.7 °F 7.0 °F 53% 29.97 in 10.0 mi West 4.6 mph - N/A   Overcast
2:53 AM 23.0 °F - 8.1 °F 53% 29.97 in 10.0 mi Calm Calm - N/A   Overcast
3:53 AM 23.0 °F - 8.1 °F 53% 29.97 in 10.0 mi Calm Calm - N/A   Overcast
4:53 AM 23.0 °F - 9.0 °F 55% 29.98 in 10.0 mi Calm Calm - N/A   Overcast
5:53 AM 23.0 °F - 10.9 °F 60% 29.98 in 10.0 mi Calm Calm - N/A   Overcast
6:53 AM 21.9 °F - 15.1 °F 75% 29.99 in 10.0 mi Calm Calm - N/A   Overcast
7:53 AM 24.1 °F 19.7 °F 10.9 °F 57% 30.02 in 10.0 mi SSW 3.5 mph - N/A   Overcast
8:53 AM 25.0 °F - 10.9 °F 55% 30.02 in 10.0 mi Calm Calm - N/A   Overcast
10:53 AM 27.0 °F - 10.9 °F 51% 30.03 in 10.0 mi Calm Calm - N/A   Overcast
11:53 AM 27.0 °F - 12.0 °F 53% 30.01 in 10.0 mi Calm Calm - N/A   Overcast
12:53 PM 27.0 °F - 12.9 °F 56% 29.99 in 10.0 mi Calm Calm - N/A   Overcast
1:53 PM 27.0 °F 23.0 °F 14.0 °F 58% 29.98 in 10.0 mi Variable 3.5 mph - N/A   Overcast
2:53 PM 27.0 °F - 15.1 °F 61% 29.98 in 10.0 mi Calm Calm - N/A   Overcast
3:53 PM 28.0 °F 24.2 °F 15.1 °F 58% 29.95 in 10.0 mi East 3.5 mph - N/A   Overcast
4:53 PM 27.0 °F - 15.1 °F 61% 29.96 in 10.0 mi Calm Calm - N/A   Overcast
5:53 PM 27.0 °F 21.6 °F 16.0 °F 63% 29.95 in 10.0 mi ESE 4.6 mph - N/A   Overcast
6:53 PM 26.1 °F 20.5 °F 19.0 °F 75% 29.97 in 3.0 mi SE 4.6 mph - 0.00 in Snow Light Snow
7:06 PM 26.6 °F 22.6 °F 19.4 °F 74% 29.96 in 2.5 mi SE 3.5 mph - 0.00 in Snow Light Snow
7:42 PM 24.8 °F - 21.2 °F 86% 29.96 in 3.0 mi Calm Calm - 0.00 in Snow Light Snow
7:53 PM 26.1 °F 21.9 °F 21.9 °F 84% 29.96 in 3.0 mi ENE 3.5 mph - 0.00 in Snow Light Snow
8:21 PM 24.8 °F - 23.0 °F 93% 29.96 in 2.5 mi Calm Calm - 0.00 in Snow Light Snow
8:31 PM 24.8 °F - 23.0 °F 93% 29.96 in 1.5 mi Calm Calm - 0.00 in Snow Light Snow
8:49 PM 24.8 °F - 23.0 °F 93% 29.96 in 2.5 mi Calm Calm - 0.00 in Snow Light Snow
8:53 PM 25.0 °F - 23.0 °F 92% 29.96 in 2.5 mi Calm Calm - 0.00 in Snow Light Snow
9:03 PM 24.8 °F - 24.8 °F 100% 29.96 in 1.5 mi Calm Calm - 0.00 in Snow Light Snow
9:24 PM 24.8 °F - 21.2 °F 86% 29.96 in 2.0 mi Calm Calm - 0.01 in Snow Light Snow
9:35 PM 24.8 °F - 21.2 °F 86% 29.96 in 3.0 mi Calm Calm - 0.01 in Snow Light Snow
9:50 PM 26.6 °F - 21.2 °F 80% 29.96 in 1.8 mi Calm Calm - 0.01 in Snow Light Snow
9:53 PM 26.1 °F - 21.9 °F 84% 29.96 in 1.5 mi Calm Calm - 0.01 in Snow Light Snow
10:07 PM 26.6 °F - 23.0 °F 86% 29.96 in 3.0 mi Calm Calm - 0.00 in Snow Light Snow
10:32 PM 26.6 °F - 23.0 °F 86% 29.95 in 5.0 mi Calm Calm - 0.00 in Snow Light Snow
10:53 PM 26.1 °F - 23.0 °F 88% 29.95 in 6.0 mi Calm Calm - 0.00 in   Overcast
11:53 PM 26.1 °F - 24.1 °F 92% 29.94 in 6.0 mi Calm Calm - 0.00 in   Overcast